Home   Weather   Reston   Past weeks

Flag for USA Past Weather in Reston, Virginia, USA — Yesterday and Last 2 Weeks

Now
39 °F

Heavy rain. Fog.


Feels Like: 33 °F
Forecast: 37 / 42 °F
Wind: 8 mph from North

Location: Washington-Dulles International Airport

Current Time: Dec 6, 2016 at 5:02:26 pm

Latest Report: Dec 6, 2016 at 3:52 pm


Visibility: 1 mi

Pressure: 29.86 "Hg

Humidity: 96%

Dew Point: 38 °F

Location of RestonLocation

Past Weather in Reston — Graph

°F

Reston Temperature Yesterday

Maximum temperature yesterday: 55 °F (at 1:52 pm)
Minimum temperature yesterday: 38 °F (at 12:52 am)
Average temperature yesterday: 44 °F

High & Low Weather Summary for the Past Weeks

 TemperatureHumidityPressure
High64 °F (Nov 30, 1:52 pm)100% (Nov 29, 7:52 pm)30.38 "Hg (Nov 29, 7:52 pm)
Low23 °F (Nov 23, 3:52 am)26% (Nov 22, 3:52 pm)29.54 "Hg (Nov 30, 9:52 pm)
Average44 °F64%30.10 "Hg
* Reported Nov 21 3:52 pm — Dec 6 3:52 pm, Reston, Weather by CustomWeather, © 2016

Note: Actual official high and low records may vary slightly from our data, if they occured in-between our weather recording intervals... More about our weather records

Advertising

Reston Weather History for the Previous 24 Hours

Scroll right to see more
 ConditionsComfort  
Time TempWeatherWind HumidityBarometerVisibility
3:52 pm
Tue, Dec 6
39 °FHeavy rain. Fog.8 mph96%29.86 "Hg1 mi
2:52 pm39 °FLight rain. Fog.9 mph93%29.86 "Hg2 mi
1:52 pm39 °FHeavy rain. Fog.8 mph93%29.88 "Hg1 mi
12:59 pm40 °FLight rain. Mostly cloudy.10 mph86%29.93 "Hg7 mi
12:52 pm40 °FLight rain. Cloudy.6 mph86%29.94 "Hg8 mi
11:52 am40 °FLight rain. Overcast.6 mph86%30.00 "Hg7 mi
10:52 am40 °FLight rain. Mostly cloudy.No wind83%30.06 "Hg7 mi
9:58 am40 °FSleet. Mostly cloudy.3 mph83%30.08 "Hg7 mi
8:52 am41 °FLight rain. Overcast.5 mph76%30.09 "Hg7 mi
7:52 am41 °FLight rain. Cloudy.6 mph65%30.10 "Hg10 mi
6:52 am40 °FPassing clouds.No wind77%30.10 "Hg10 mi
5:52 am39 °FOvercast.3 mph76%30.12 "Hg10 mi
4:52 am39 °FOvercast.3 mph76%30.12 "Hg10 mi
3:52 am40 °FOvercast.6 mph68%30.10 "Hg10 mi
2:52 am41 °FOvercast.No wind65%30.13 "Hg10 mi
1:52 am40 °FMostly cloudy.3 mph70%30.11 "Hg10 mi
12:52 am40 °FOvercast.5 mph73%30.13 "Hg10 mi
11:52 pm
Mon, Dec 5
39 °FMostly cloudy.5 mph76%30.14 "Hg10 mi
10:52 pm40 °FMostly cloudy.No wind73%30.12 "Hg10 mi
9:52 pm42 °FMostly cloudy.No wind68%30.12 "Hg10 mi
8:52 pm43 °FMostly cloudy.6 mph62%30.11 "Hg10 mi
7:52 pm47 °FPassing clouds.7 mph54%30.10 "Hg10 mi
6:52 pm48 °FOvercast.7 mph54%30.08 "Hg10 mi
5:52 pm49 °FPassing clouds.7 mph55%30.06 "Hg10 mi
Weather by CustomWeather, © 2016

See weather overviewHow to use our weather pages